[[{"header":{"parameterUnit":"m.s-1","parameterCategory":1,"la1":30.2991,"la2":30.254,"lo1":-89.0895,"lo2":-89.0444,"dy":0.0017,"dx":0.0017,"nx":28,"ny":28,"refTime":"2025-07-08T09:00:00:Z","depth":0,"parameterNumber":2,"parameterNumberName":"U-component_of_WINDS"},"data":[0,0,0,0,0,0,0,0,0,0,0,0,0,0,0,0,0,0,0,0,0,0,0,0,0,0,0,0,0,0,0,0,0,0,0,0,0,0,0,0,0,0,0,0,0,0,0,0,0,0,0,0,0,0,0,0,0,0,1.953,1.9532,0,1.9703,1.9705,1.9707,1.9752,1.9751,1.975,1.9748,1.9931,1.9937,1.9943,0,0,0,0,0,0,0,0,0,0,0,0,0,1.924,1.9245,1.953,1.9532,1.9534,1.9703,1.9706,1.9708,1.9752,1.9751,1.9749,1.9748,1.9929,1.9936,1.9943,0,0,0,0,0,0,0,0,0,0,0,0,0,1.9385,1.9247,1.9529,1.9576,1.9582,1.9703,1.9706,1.9709,1.9752,1.9751,1.9749,1.9747,1.9927,1.9936,1.9944,2.0032,0,0,1.9971,1.9975,0,0,0,0,0,0,0,0,1.9377,1.9396,1.9567,1.9573,1.958,1.9704,1.9671,1.9817,1.9753,1.9688,1.9748,1.9747,1.9857,1.9872,1.9908,2.0041,2.0049,1.9972,1.9978,1.9981,1.9984,0,0,0,0,0,0,0,1.9367,1.9389,1.9599,1.957,1.9578,1.959,1.9609,1.9699,1.978,1.9693,1.9697,1.9717,1.9861,1.99,1.9913,2.0051,1.9972,1.998,1.9985,1.9989,2.0264,2.0266,0,0,0,0,0,0,1.9348,1.938,1.9593,1.9604,1.9472,1.9596,1.9617,1.9666,1.9779,1.9795,1.9718,1.9718,1.9885,1.9903,1.9919,2.0029,1.9981,1.999,1.9995,2.0262,2.0264,2.0266,0,0,0,0,0,0,1.9342,1.9367,1.9586,1.9493,1.9522,1.9603,1.9657,1.967,1.9709,1.9798,1.9813,1.9742,1.9885,1.9907,2.0003,2.0036,1.9994,2.0002,2.0259,2.0262,2.0265,2.0248,0,0,0,0,0,0,1.9333,1.9364,1.9397,1.9493,1.9526,1.9666,1.9659,1.9675,1.9724,1.9726,1.9825,1.9839,1.9885,1.999,2.0012,2.0047,2.0009,2.0257,2.0261,2.0264,2.0246,2.025,2.0254,0,0,0,0,0,1.9323,1.9387,1.9399,1.9424,1.9569,1.9667,1.9687,1.9736,1.9726,1.9761,1.9817,1.9836,2.0029,1.9999,2.0025,2.0063,2.0255,2.026,2.0264,2.0244,2.0249,2.0253,0,0,0,0,0,0,1.9295,1.94,1.9415,1.9512,1.958,1.9674,1.972,1.974,1.9814,1.9813,1.9873,1.9895,1.9987,2.0035,2.0,2.0153,2.0142,2.0152,2.0118,2.0124,2.0127,2.0114,2.0016,0,0,0,0,0,1.9299,1.9368,1.9458,1.9535,1.9568,1.9638,1.9682,1.9715,1.9789,1.9818,1.9882,1.9954,2.0031,2.008,2.0156,2.0253,2.0276,2.0292,2.0296,2.0299,2.0306,2.0361,2.0369,2.0281,2.0281,2.0281,0,0,1.931,1.9377,1.9417,1.9531,1.9587,1.9659,1.9662,1.9738,1.9791,1.983,1.9924,1.9973,2.0058,2.0155,2.0201,2.0198,2.0335,2.0304,2.0306,2.0312,2.0366,2.0374,2.0382,2.0284,2.0283,2.0283,0,0,1.9367,1.9424,1.9494,1.955,1.9635,1.9681,1.9697,1.9789,1.9823,1.9918,1.9948,2.0014,2.0145,2.0203,2.025,2.0328,2.0348,2.0351,2.037,2.0422,2.0429,2.0436,2.0463,2.0472,2.0358,2.0358,2.0358,0,1.937,1.9477,1.9528,1.9601,1.965,1.9687,1.9758,1.9811,1.9917,1.9951,1.9945,2.0109,2.0169,2.028,2.0298,2.0336,2.0357,2.034,2.0424,2.0431,2.0438,2.0464,2.0474,2.0358,2.0358,2.0358,2.0358,0,1.9477,1.9551,1.9597,1.9696,1.9751,1.9823,1.9885,1.9935,1.9962,2.0009,2.0105,2.0177,2.0268,2.0297,2.0325,2.0411,2.0406,2.0412,2.0401,2.0445,2.0471,2.0481,2.0358,2.0358,2.0358,2.0358,0,0,1.952,1.9645,1.9662,1.9707,1.9803,1.9862,1.9936,2.0022,2.0063,2.0135,2.0199,2.0308,2.0313,2.0367,2.0402,2.0448,2.0503,2.0448,2.0451,2.0455,2.0602,2.0597,2.0607,2.0517,2.052,2.0521,2.0595,0,1.9588,1.972,1.9767,1.9876,1.9944,1.998,2.0045,2.0111,2.0157,2.0223,2.0274,2.035,2.0351,2.0383,2.043,2.0486,2.0534,2.0482,2.0578,2.0581,2.0554,2.0621,2.0616,2.0682,2.0605,2.0607,2.0608,0,1.9684,1.9755,1.987,1.9957,1.9988,2.0044,2.0127,2.0189,2.0266,2.0296,2.0354,2.0386,2.0466,2.0451,2.0562,2.0525,2.0567,2.0601,2.0605,2.0615,2.0596,2.0633,2.0704,2.0713,2.0625,2.0623,2.0622,0,1.9703,1.9828,1.9912,1.995,2.0054,2.0093,2.0138,2.0212,2.0261,2.0334,2.0366,2.0448,2.0493,2.0556,2.0609,2.0593,2.0715,2.0704,2.0742,2.0741,2.0766,2.0763,2.0844,2.0794,2.0794,2.0794,2.0793,0,1.9773,1.9842,1.9922,1.9974,2.0052,2.0106,2.0183,2.023,2.0296,2.0359,2.0396,2.0454,2.0521,2.0588,2.0631,2.0716,2.0736,2.0763,2.0773,2.0759,2.0756,2.0787,2.0784,2.0796,2.0796,2.0795,2.0795,0,1.9807,1.9863,1.9958,2.0047,2.0072,2.0125,2.0203,2.0255,2.0302,2.038,2.0402,2.0476,2.0557,2.0616,2.0722,2.075,2.0841,2.0852,2.0814,2.0819,2.0853,2.0849,2.0957,2.0973,2.0912,2.0913,2.0913,0,1.9847,1.9901,1.9996,2.0039,2.0084,2.0154,2.0203,2.0259,2.0309,2.0399,2.0441,2.0524,2.0593,2.0721,2.0785,2.0865,2.0878,2.091,2.0891,2.0874,2.0878,2.0873,2.0879,2.0913,2.0913,2.0913,2.0914,0,1.9913,1.9938,2.0006,2.0085,2.0142,2.0207,2.0273,2.0307,2.0374,2.0429,2.0511,2.0564,2.0671,2.0753,2.0839,2.0887,2.0912,2.0919,2.0932,2.0918,2.0893,2.0906,2.0821,2.0917,2.0916,2.0916,2.0916,2.0916,1.9951,2.0,2.0073,2.0149,2.0204,2.0264,2.0317,2.0369,2.0438,2.0528,2.0557,2.0642,2.0717,2.0835,2.0884,2.0952,2.0951,2.097,2.0975,2.0979,2.0977,2.0883,2.0968,2.0968,2.0968,2.0968,2.0968,0,2.0017,2.0066,2.0135,2.0224,2.0284,2.03,2.0374,2.0422,2.0496,2.0563,2.063,2.0724,2.0803,2.0873,2.0955,2.0996,2.101,2.1016,2.1013,2.1024,2.0973,2.0953,2.1004,2.1004,2.1004,2.1004,2.1004,2.1004,2.0059,2.0141,2.0175,2.0286,2.0335,2.0417,2.0457,2.0513,2.0567,2.0669,2.0735,2.0779,2.0848,2.0935,2.1009,2.1028,2.1056,2.106,2.1081,2.1032,2.1028,2.1023,2.1005,2.1065,2.1066,2.1126,2.1126,2.1127]},{"header":{"parameterUnit":"m.s-1","parameterCategory":1,"la1":30.2991,"la2":30.254,"lo1":-89.0895,"lo2":-89.0444,"dy":0.0017,"dx":0.0017,"nx":28,"ny":28,"refTime":"2025-07-08T09:00:00:Z","depth":0,"parameterNumber":3,"parameterNumberName":"V-component_of_WINDS"},"data":[0,0,0,0,0,0,0,0,0,0,0,0,0,0,0,0,0,0,0,0,0,0,0,0,0,0,0,0,0,0,0,0,0,0,0,0,0,0,0,0,0,0,0,0,0,0,0,0,0,0,0,0,0,0,0,0,0,0,4.0723,4.0723,0,4.0698,4.0698,4.0697,4.068,4.068,4.068,4.068,4.0651,4.065,4.065,0,0,0,0,0,0,0,0,0,0,0,0,0,4.0753,4.0752,4.0723,4.0723,4.0723,4.0698,4.0698,4.0697,4.068,4.068,4.068,4.068,4.0651,4.065,4.065,0,0,0,0,0,0,0,0,0,0,0,0,0,4.0735,4.0752,4.0723,4.0711,4.071,4.0698,4.0698,4.0697,4.068,4.068,4.068,4.068,4.0652,4.0651,4.065,4.0647,0,0,4.0647,4.0646,0,0,0,0,0,0,0,0,4.0736,4.0734,4.0713,4.0712,4.0711,4.0692,4.0697,4.068,4.068,4.0691,4.068,4.068,4.0665,4.0663,4.0658,4.0646,4.0644,4.0646,4.0646,4.0645,4.0645,0,0,0,0,0,0,0,4.0737,4.0735,4.0713,4.0713,4.0711,4.0706,4.0703,4.0694,4.0679,4.069,4.0689,4.0687,4.0664,4.0659,4.0657,4.0644,4.0647,4.0646,4.0645,4.0645,4.0624,4.0624,0,0,0,0,0,0,4.0741,4.0736,4.0714,4.0713,4.0723,4.0705,4.0702,4.0698,4.0679,4.0676,4.0687,4.0686,4.0661,4.0658,4.0656,4.065,4.0645,4.0645,4.0644,4.0624,4.0624,4.0624,0,0,0,0,0,0,4.0742,4.0739,4.0715,4.0724,4.072,4.0705,4.0701,4.0698,4.0693,4.0677,4.0673,4.0685,4.0661,4.0658,4.0649,4.0649,4.0644,4.0643,4.0624,4.0624,4.0624,4.0638,0,0,0,0,0,0,4.0742,4.0739,4.074,4.0724,4.072,4.071,4.0701,4.0697,4.0692,4.069,4.0674,4.0671,4.066,4.065,4.0648,4.0647,4.0642,4.0624,4.0624,4.0624,4.0638,4.0639,4.064,0,0,0,0,0,4.0744,4.0745,4.074,4.0737,4.072,4.071,4.0707,4.0696,4.0692,4.0691,4.068,4.0672,4.0649,4.065,4.0647,4.0646,4.0624,4.0624,4.0624,4.0637,4.0639,4.064,0,0,0,0,0,0,4.076,4.0742,4.0737,4.0733,4.0723,4.0707,4.0706,4.0698,4.0688,4.0687,4.0672,4.0668,4.0661,4.0652,4.0653,4.064,4.0635,4.0635,4.0646,4.0647,4.0648,4.065,4.0642,0,0,0,0,0,4.0763,4.0758,4.0742,4.074,4.0735,4.0721,4.0716,4.0708,4.0697,4.0692,4.0681,4.0669,4.0659,4.0653,4.0643,4.0636,4.0631,4.0634,4.0635,4.0636,4.0635,4.0628,4.0629,4.0625,4.0625,4.0625,0,0,4.077,4.076,4.0757,4.0743,4.0734,4.0727,4.0718,4.0711,4.0705,4.0691,4.0682,4.0673,4.0658,4.065,4.0646,4.0643,4.0635,4.0636,4.0637,4.0636,4.0628,4.0629,4.0629,4.0625,4.0625,4.0625,0,0,4.0778,4.0771,4.0767,4.0758,4.0745,4.0735,4.0734,4.0719,4.0712,4.0703,4.0691,4.0683,4.0667,4.0656,4.0649,4.065,4.0641,4.0647,4.0652,4.0645,4.0646,4.0646,4.0644,4.0644,4.0647,4.0647,4.0647,0,4.0788,4.0778,4.0766,4.076,4.0753,4.074,4.0735,4.0726,4.071,4.0705,4.0702,4.068,4.0669,4.0657,4.0657,4.0652,4.0648,4.0649,4.0647,4.0647,4.0647,4.0645,4.0645,4.0647,4.0647,4.0647,4.0647,0,4.0789,4.0782,4.0781,4.0766,4.0759,4.0753,4.0739,4.0733,4.0724,4.0714,4.0703,4.0689,4.0675,4.0672,4.0664,4.0657,4.0656,4.065,4.0645,4.0648,4.0646,4.0646,4.0648,4.0648,4.0648,4.0648,0,0,4.0808,4.0786,4.0785,4.0777,4.076,4.0754,4.0746,4.0733,4.0727,4.0716,4.0708,4.0693,4.0687,4.0678,4.0668,4.0663,4.0662,4.0657,4.0657,4.0657,4.0651,4.0655,4.0655,4.0656,4.0656,4.0656,4.0652,0,4.0813,4.08,4.0788,4.0779,4.0771,4.0757,4.075,4.0738,4.0728,4.0718,4.0706,4.0695,4.0689,4.0683,4.0677,4.0663,4.066,4.0664,4.0646,4.0646,4.065,4.0654,4.0658,4.0656,4.0651,4.0651,4.0651,0,4.0817,4.0806,4.0797,4.0779,4.0775,4.0769,4.0754,4.0746,4.0731,4.0723,4.0713,4.0702,4.0691,4.0686,4.0669,4.0672,4.0664,4.0656,4.0655,4.0653,4.0648,4.065,4.0655,4.0654,4.065,4.065,4.065,0,4.083,4.0813,4.0804,4.0798,4.0777,4.0773,4.0764,4.0749,4.0741,4.0727,4.0722,4.0707,4.0699,4.0686,4.0671,4.0669,4.0654,4.0649,4.0646,4.0646,4.0643,4.0644,4.0646,4.064,4.064,4.064,4.064,0,4.0836,4.083,4.0809,4.0804,4.0796,4.0781,4.0773,4.0763,4.0749,4.0739,4.0726,4.0717,4.0698,4.0686,4.0673,4.066,4.0656,4.0648,4.0645,4.0649,4.065,4.0643,4.0643,4.064,4.064,4.064,4.064,0,4.0849,4.0835,4.0824,4.0805,4.08,4.0795,4.0778,4.0771,4.0759,4.0747,4.0743,4.0724,4.0709,4.0692,4.0672,4.0663,4.065,4.0646,4.0655,4.0653,4.065,4.065,4.0647,4.0645,4.0642,4.0642,4.0642,0,4.0853,4.0848,4.0828,4.0822,4.0813,4.0802,4.0794,4.0778,4.0769,4.075,4.0745,4.0729,4.0715,4.0691,4.0674,4.0658,4.0652,4.0652,4.0649,4.0653,4.065,4.065,4.0649,4.0653,4.0653,4.0653,4.0653,0,4.0862,4.0855,4.0844,4.083,4.082,4.0808,4.0795,4.079,4.0771,4.0762,4.0746,4.0736,4.0714,4.0697,4.0678,4.0666,4.0655,4.0654,4.0652,4.0656,4.0661,4.0656,4.0656,4.0654,4.0654,4.0654,4.0654,4.0654,4.0869,4.0863,4.0848,4.0836,4.0824,4.0812,4.0804,4.0791,4.0779,4.0761,4.0751,4.0735,4.0717,4.069,4.0679,4.0664,4.0661,4.0659,4.0658,4.0657,4.0658,4.0664,4.0661,4.0661,4.0661,4.0661,4.0661,0,4.0876,4.0865,4.0854,4.0836,4.0826,4.0818,4.0802,4.0793,4.078,4.0765,4.0752,4.0732,4.0716,4.0697,4.0678,4.067,4.0664,4.0665,4.0665,4.0662,4.0663,4.0666,4.067,4.067,4.067,4.067,4.067,4.067,4.0878,4.0867,4.0858,4.084,4.0829,4.0814,4.0806,4.0794,4.0781,4.0761,4.0747,4.0735,4.0717,4.0697,4.068,4.0674,4.0667,4.067,4.0663,4.0663,4.0663,4.0662,4.0664,4.0669,4.0669,4.0663,4.0663,4.0663]}]]